GW3202 Weather Reports


time (UTC)temp
F
wind
direction
speed
knots
gust
knots
rain 1hr
in
rain 24hr
in
rain mn
in
humidity
%
barometer
mb
20260831054004 69 131 7.0 13.9 0.00 0.00 0.00 77 1021.9
20260831053003 69 123 6.1 18.2 0.00 0.00 0.00 79 1021.9
20260831052003 69 148 5.2 13.9 0.00 0.00 0.00 79 1021.9
20260831050003 70 141 7.0 11.3 0.00 0.00 0.00 77 1022.0
20260831045004 70 122 4.3 10.4 0.00 0.00 0.00 77 1021.9
20260831044003 69 142 2.6 8.7 0.00 0.00 0.00 79 1021.9
20260831043003 69 116 7.0 8.7 0.00 0.00 0.00 79 1021.7
20260831042004 69 148 5.2 13.0 0.00 0.00 0.00 79 1021.9
20260831040003 70 128 5.2 10.4 0.00 0.00 0.00 77 1021.7
20260831035005 70 121 4.3 12.2 0.00 0.00 0.00 75 1021.8
20260831034004 70 157 6.1 12.2 0.00 0.00 0.00 75 1021.7
20260831033003 70 146 5.2 11.3 0.00 0.00 0.00 74 1021.6
20260831032004 70 156 4.3 11.3 0.00 0.00 0.00 76 1021.6
20260831030003 69 165 4.3 13.9 0.00 0.00 0.00 85 1021.4
20260831025004 69 156 5.2 12.2 0.00 0.00 0.00 89 1021.2
20260831024003 69 190 4.3 12.2 0.00 0.00 0.00 92 1021.2
20260831023003 70 152 5.2 13.9 0.00 0.00 0.00 94 1020.9
20260831022003 70 125 0.9 8.7 0.00 0.00 0.00 94 1020.8
20260831021004 71 167 1.7 12.2 0.00 0.00 0.00 93 1020.8
20260831015003 72 153 3.5 7.8 0.00 0.00 0.00 89 1020.2
20260831014003 72 132 4.3 8.7 0.00 0.00 0.00 87 1019.7
20260831013004 73 126 6.1 10.4 0.00 0.00 0.00 85 1019.5
20260831012004 73 142 4.3 10.4 0.00 0.00 0.00 84 1019.7
20260831011004 73 174 4.3 10.4 0.00 0.00 0.00 82 1019.5
20260831005003 74 138 7.0 12.2 0.00 0.00 0.00 79 1019.4
20260831004004 75 165 5.2 7.8 0.00 0.00 0.00 78 1019.6
20260831002006 76 177 2.6 10.4 0.00 0.00 0.00 78 1019.2
20260831001004 76 160 4.3 11.3 0.00 0.00 0.00 78 1019.1
20260831000003 77 198 2.6 8.7 0.00 0.00 0.00 74 1019.1
20260830235003 79 158 4.3 7.0 0.00 0.00 0.00 70 1018.8
20260830233003 79 153 5.2 10.4 0.00 0.00 0.00 71 1018.9
20260830231003 79 187 3.5 11.3 0.00 0.00 0.00 69 1018.7
20260830230005 80 167 4.3 11.3 0.00 0.00 0.00 68 1018.6
20260830225003 82 169 4.3 8.7 0.00 0.00 0.00 67 1018.7
20260830224005 81 203 1.7 7.8 0.00 0.00 0.00 63 1018.6
20260830223004 81 132 5.2 8.7 0.00 0.00 0.00 54 1018.7
20260830222003 82 210 2.6 8.7 0.00 0.00 0.00 52 1018.4
20260830221004 82 154 2.6 8.7 0.00 0.00 0.00 51 1018.7
20260830215003 83 255 0.9 7.8 0.00 0.00 0.00 49 1019.1
20260830214003 84 155 1.7 6.1 0.00 0.00 0.00 50 1018.9
20260830213004 81 198 1.7 6.1 0.00 0.00 0.00 52 1019.2
20260830212004 81 172 2.6 8.7 0.00 0.00 0.00 46 1019.3
20260830211003 81 167 3.5 8.7 0.00 0.00 0.00 50 1019.3
20260830210003 81 96 2.6 7.8 0.00 0.00 0.00 43 1019.4
20260830205003 80 203 0.9 6.1 0.00 0.00 0.00 54 1019.6
20260830204003 82 248 1.7 2.6 0.00 0.00 0.00 53 1019.5
20260830203003 79 343 0.9 4.3 0.00 0.00 0.00 56 1019.9
20260830201004 79 64 1.7 7.0 0.00 0.00 0.00 65 1020.1
20260830200003 80 5 4.3 7.0 0.00 0.00 0.00 62 1020.2
20260830195003 80 336 1.7 7.0 0.00 0.00 0.00 61 1020.5
20260830194004 79 352 1.7 6.1 0.00 0.00 0.00 63 1020.6
20260830193003 78 220 0.0 4.3 0.00 0.00 0.00 63 1020.8
20260830192003 80 275 0.9 4.3 0.00 0.00 0.00 61 1020.8
20260830190004 78 173 2.6 7.8 0.00 0.00 0.00 62 1020.9
20260830185004 79 325 1.7 5.2 0.00 0.00 0.00 60 1021.2
20260830184004 77 15 2.6 6.1 0.00 0.00 0.00 62 1021.3
20260830183004 77 343 4.3 5.2 0.00 0.00 0.00 61 1021.5
20260830182004 76 34 1.7 6.1 0.00 0.00 0.00 62 1021.5
20260830181004 76 277 1.7 6.1 0.00 0.00 0.00 64 1021.7
20260830175005 74 290 1.7 6.1 0.00 0.00 0.00 71 1021.9
20260830174004 74 320 1.7 5.2 0.00 0.00 0.00 73 1021.9
20260830173004 72 309 2.6 5.2 0.00 0.00 0.00 75 1022.0
20260830172003 73 5 1.7 7.0 0.00 0.00 0.00 75 1022.1
20260830171003 71 349 1.7 6.1 0.00 0.00 0.00 76 1022.3
20260830165005 72 0 1.7 6.1 0.00 0.00 0.00 75 1022.3
20260830164009 71 79 2.6 7.0 0.00 0.00 0.00 74 1022.4
20260830163004 70 353 2.6 7.0 0.00 0.00 0.00 77 1022.3
20260830162004 71 150 1.7 7.0 0.00 0.00 0.00 78 1022.4
20260830161004 71 25 2.6 7.0 0.00 0.00 0.00 78 1022.1
20260830160004 70 20 4.3 6.1 0.00 0.00 0.00 79 1022.3
20260830155005 69 55 3.5 7.0 0.00 0.00 0.00 80 1022.3
20260830154004 69 94 4.3 7.8 0.00 0.00 0.00 79 1022.5
20260830153004 69 0 1.7 8.7 0.00 0.00 0.00 81 1022.4
20260830152004 69 127 0.9 7.0 0.00 0.00 0.00 81 1022.5
20260830151004 69 69 1.7 6.1 0.00 0.00 0.00 80 1022.4
20260830150003 67 75 1.7 6.1 0.00 0.00 0.00 82 1022.6
20260830145007 68 104 1.7 6.1 0.00 0.00 0.00 84 1022.5
20260830144004 67 60 2.6 6.1 0.00 0.00 0.00 86 1022.5
20260830143004 67 32 2.6 4.3 0.00 0.00 0.00 86 1022.6
20260830142004 66 79 0.9 6.1 0.00 0.00 0.00 87 1022.6
20260830141003 66 100 1.7 7.0 0.00 0.00 0.00 88 1022.5
20260830140003 66 104 2.6 7.0 0.00 0.00 0.00 88 1022.5
20260830135004 66 32 2.6 7.0 0.00 0.01 0.00 89 1022.3
20260830134004 66 88 1.7 5.2 0.00 0.01 0.00 89 1022.5
20260830133004 66 104 1.7 5.2 0.00 0.01 0.00 90 1022.3
20260830132003 65 80 1.7 5.2 0.00 0.02 0.00 92 1022.3
20260830130004 65 96 1.7 2.6 0.00 0.03 0.00 92 1022.4
20260830124004 64 89 0.9 4.3 0.00 0.03 0.00 92 1022.2
20260830123004 64 111 0.9 2.6 0.00 0.07 0.00 92 1022.0
20260830122004 64 112 0.9 2.6 0.00 0.10 0.00 91 1021.9
20260830121004 64 85 2.6 2.6 0.00 0.10 0.00 90 1021.9
20260830120005 65 72 0.9 2.6 0.00 0.10 0.00 90 1021.9
20260830115004 64 84 0.9 2.6 0.00 0.10 0.00 90 1021.6
20260830114004 64 93 2.6 4.3 0.00 0.10 0.00 90 1021.6
20260830113003 64 115 1.7 4.3 0.00 0.10 0.00 90 1021.4
20260830112004 64 78 1.7 5.2 0.00 0.10 0.00 90 1021.4
20260830111004 64 93 1.7 4.3 0.00 0.10 0.00 90 1021.3
20260830110004 64 73 0.9 4.3 0.00 0.10 0.00 90 1021.3
20260830105004 64 107 1.7 2.6 0.00 0.11 0.00 90 1021.1
20260830104003 64 100 0.9 4.3 0.00 0.12 0.00 91 1021.2
20260830102004 64 120 1.7 1.7 0.00 0.14 0.00 93 1021.5
20260830101004 64 158 1.7 2.6 0.00 0.15 0.00 93 1021.5
20260830095005 64 67 0.9 1.7 0.00 0.16 0.00 92 1021.7
20260830094005 65 246 0.0 2.6 0.00 0.17 0.00 92 1021.8
20260830092004 65 114 0.0 2.6 0.00 0.17 0.00 92 1021.7
20260830091004 65 156 0.0 1.7 0.00 0.17 0.00 92 1021.8
20260830090004 65 106 0.0 1.7 0.00 0.17 0.00 92 1021.9
20260830085004 65 99 0.9 1.7 0.00 0.17 0.00 92 1021.9
20260830083003 65 95 0.9 2.6 0.00 0.17 0.00 91 1021.6
20260830082004 65 123 1.7 2.6 0.00 0.17 0.00 91 1021.7
20260830081004 65 120 0.9 2.6 0.00 0.17 0.00 92 1021.9
20260830080004 65 113 1.7 2.6 0.00 0.17 0.00 92 1022.0
20260830075003 65 104 0.9 2.6 0.00 0.17 0.00 92 1022.1
20260830073005 66 109 0.0 2.6 0.00 0.17 0.00 91 1022.3
20260830070004 67 235 0.9 1.7 0.00 0.17 0.00 88 1022.7
20260830065004 66 74 0.0 1.7 0.00 0.17 0.00 87 1022.7
20260830064004 66 140 1.7 2.6 0.00 0.17 0.00 88 1022.8
20260830062005 67 107 0.0 1.7 0.00 0.17 0.00 88 1022.9
20260830061004 67 234 0.9 4.3 0.00 0.17 0.00 89 1022.9
20260830060004 67 245 0.0 0.9 0.00 0.17 0.00 88 1022.8
20260830055004 67 137 0.0 2.6 0.00 0.17 0.17 88 1022.9